Main page
Satellite images Climate Cyclones Lightning AirportsFAQ Languages Contact Newsletter About
Weather : Europe Africa North America South America Asia Australia-Oceania Others

1226, Shenzhen, Shenzhen Bao'an International Airport

latitude: , longitude: China, elevation: 22-33N m


METAR: ZGSZ 200200Z 03002MPS 310V120 9999 SCT026 31/25 Q1010 NOSIG